Location: Lugrin
(46.4033°N, 6.6674°E)
Time: 01:42:55
(UTC+00:00)

ERS-1 Rocket - Pass Details

Date: 18 September 2020
Orbit: 753 x 757 km, 98.5° (Epoch: 31 October)

Event Time Altitude Azimuth Distance (km) Brightness Sun altitude
Exits shadow 20:57:21 36° 0° (N) 1,193 4.2 -31.9°
Drops below altitude 10° 21:00:20 10° 351° (N) 2,294 6.1 -32.3°
Sets 21:02:39 0° 349° (NNW) 3,225 7.0 -32.6°
